INMARSAT 6-F1

Last updated on Mon Jul 07 2025 00:02:47 GMT+0000 (Coordinated Universal Time)

1 50319U 21128A 25187.43801296 -.00000155 00000+0 00000+0 0 9998 2 50319 0.0274 29.1019 0000290 88.0714 48.9485 1.00269819 12797
UTC large
Height (km)
Speed (km/s)
/
Latitude / Longitude
Inclination (degrees)
Orbital Period (minutes)
Azimuth
Elevation
Range (km)
Doppler Factor

Next 0 passes for location: London (51.5072 / 0.1276)

Sorry there are no passes over London.